Time,TemperatureF,DewpointF,PressureIn,WindDirection,WindDirectionDegrees,WindSpeedMPH,WindSpeedGustMPH,Humidity,HourlyPrecipIn,Conditions,Clouds,dailyrainin,SoftwareType,DateUTC
2013-03-11 00:21:00,46.0,30.3,30.08,SW,225,3.7,-999.0,54,-99.99,,,0.00,Acu-Link.com,2013-03-11 04:21:00,
2013-03-11 00:36:00,45.7,30.0,30.09,WSW,247,4.7,-999.0,54,-99.99,,,0.00,Acu-Link.com,2013-03-11 04:36:00,
2013-03-11 00:51:00,46.0,30.3,30.08,SSW,202,6.3,-999.0,54,-99.99,,,0.00,Acu-Link.com,2013-03-11 04:51:00,
2013-03-11 01:22:00,44.6,30.3,30.07,SW,225,3.7,-999.0,57,-99.99,,,0.00,Acu-Link.com,2013-03-11 05:22:00,
2013-03-11 01:37:00,44.4,30.6,30.06,SW,225,4.2,-999.0,58,-99.99,,,0.00,Acu-Link.com,2013-03-11 05:37:00,
2013-03-11 01:52:00,44.1,30.7,30.06,WSW,247,5.3,-999.0,59,-99.99,,,0.00,Acu-Link.com,2013-03-11 05:52:00,
2013-03-11 02:07:00,43.7,30.3,30.07,WSW,247,4.2,-999.0,59,-99.99,,,0.00,Acu-Link.com,2013-03-11 06:07:00,
2013-03-11 02:22:00,43.5,30.1,30.06,WSW,247,5.8,-999.0,59,-99.99,,,0.00,Acu-Link.com,2013-03-11 06:22:00,
2013-03-11 02:37:00,43.7,29.5,30.06,WSW,247,5.3,-999.0,57,-99.99,,,0.00,Acu-Link.com,2013-03-11 06:37:00,
2013-03-11 02:53:00,43.2,29.0,30.05,SW,225,3.7,-999.0,57,-99.99,,,0.00,Acu-Link.com,2013-03-11 06:53:00,
2013-03-11 03:08:00,42.3,29.0,30.05,WSW,247,5.3,-999.0,59,-99.99,,,0.00,Acu-Link.com,2013-03-11 07:08:00,
2013-03-11 03:23:00,43.2,29.0,30.05,SW,225,4.7,-999.0,57,-99.99,,,0.00,Acu-Link.com,2013-03-11 07:23:00,
2013-03-11 03:38:00,42.6,28.9,30.04,WSW,247,5.8,-999.0,58,-99.99,,,0.00,Acu-Link.com,2013-03-11 07:38:00,
2013-03-11 03:54:00,42.4,29.1,30.04,WSW,247,7.8,-999.0,59,-99.99,,,0.00,Acu-Link.com,2013-03-11 07:54:00,
2013-03-11 04:09:00,42.8,28.6,30.02,WSW,247,6.3,-999.0,57,-99.99,,,0.00,Acu-Link.com,2013-03-11 08:09:00,
2013-03-11 04:24:00,42.3,28.2,30.02,SW,225,5.3,-999.0,57,-99.99,,,0.00,Acu-Link.com,2013-03-11 08:24:00,
2013-03-11 04:39:00,41.7,27.6,30.01,WSW,247,5.8,-999.0,57,-99.99,,,0.00,Acu-Link.com,2013-03-11 08:39:00,
2013-03-11 04:54:00,41.7,26.7,30.01,SW,225,4.7,-999.0,55,-99.99,,,0.00,Acu-Link.com,2013-03-11 08:54:00,
2013-03-11 05:09:00,41.9,25.1,30.00,WSW,247,5.3,-999.0,51,-99.99,,,0.00,Acu-Link.com,2013-03-11 09:09:00,
2013-03-11 05:24:00,41.7,24.4,30.00,WSW,247,3.2,-999.0,50,-99.99,,,0.00,Acu-Link.com,2013-03-11 09:24:00,
2013-03-11 05:39:00,42.3,23.0,30.00,SW,225,4.2,-999.0,46,-99.99,,,0.00,Acu-Link.com,2013-03-11 09:39:00,
2013-03-11 05:54:00,42.6,22.2,30.01,SW,225,5.8,-999.0,44,-99.99,,,0.00,Acu-Link.com,2013-03-11 09:54:00,
2013-03-11 06:09:00,42.4,21.5,30.00,WSW,247,6.3,-999.0,43,-99.99,,,0.00,Acu-Link.com,2013-03-11 10:09:00,
2013-03-11 06:24:00,42.6,20.0,30.00,SW,225,5.8,-999.0,40,-99.99,,,0.00,Acu-Link.com,2013-03-11 10:24:00,
2013-03-11 06:39:00,43.0,22.1,30.00,WSW,247,4.7,-999.0,43,-99.99,,,0.00,Acu-Link.com,2013-03-11 10:39:00,
2013-03-11 06:55:00,43.2,27.2,30.00,WSW,247,5.8,-999.0,53,-99.99,,,0.00,Acu-Link.com,2013-03-11 10:55:00,
2013-03-11 07:10:00,42.8,29.1,30.00,SW,225,4.2,-999.0,58,-99.99,,,0.00,Acu-Link.com,2013-03-11 11:10:00,
2013-03-11 07:25:00,43.3,32.3,30.00,SSW,202,4.7,-999.0,65,-99.99,,,0.00,Acu-Link.com,2013-03-11 11:25:00,
2013-03-11 07:40:00,43.3,33.1,30.01,SW,225,5.3,-999.0,67,-99.99,,,0.00,Acu-Link.com,2013-03-11 11:40:00,
2013-03-11 07:55:00,43.3,34.5,29.99,WSW,247,5.3,-999.0,71,-99.99,,,0.00,Acu-Link.com,2013-03-11 11:55:00,
2013-03-11 08:10:00,43.3,34.5,29.99,SSW,202,3.7,-999.0,71,-99.99,,,0.00,Acu-Link.com,2013-03-11 12:10:00,
2013-03-11 08:25:00,43.3,34.5,29.99,SSW,202,4.7,-999.0,71,-99.99,,,0.00,Acu-Link.com,2013-03-11 12:25:00,
2013-03-11 08:40:00,43.5,34.0,29.99,SW,225,4.2,-999.0,69,-99.99,,,0.00,Acu-Link.com,2013-03-11 12:40:00,
2013-03-11 08:55:00,43.7,31.9,29.99,WSW,247,4.2,-999.0,63,-99.99,,,0.00,Acu-Link.com,2013-03-11 12:55:00,
2013-03-11 09:26:00,44.1,29.4,30.00,SW,225,4.2,-999.0,56,-99.99,,,0.00,Acu-Link.com,2013-03-11 13:26:00,
2013-03-11 09:41:00,44.8,30.9,30.00,SW,225,4.2,-999.0,58,-99.99,,,0.00,Acu-Link.com,2013-03-11 13:41:00,
2013-03-11 09:57:00,45.7,32.2,29.99,SW,225,5.3,-999.0,59,-99.99,,,0.00,Acu-Link.com,2013-03-11 13:57:00,
2013-03-11 10:12:00,46.9,34.2,29.99,SW,225,4.7,-999.0,61,-99.99,,,0.00,Acu-Link.com,2013-03-11 14:12:00,
2013-03-11 10:27:00,47.5,35.5,29.98,West,270,5.8,-999.0,63,-99.99,,,0.00,Acu-Link.com,2013-03-11 14:27:00,
2013-03-11 10:42:00,46.0,30.7,29.97,South,180,5.3,-999.0,55,-99.99,,,0.00,Acu-Link.com,2013-03-11 14:42:00,
2013-03-11 10:57:00,45.9,29.3,29.98,SW,225,2.7,-999.0,52,-99.99,,,0.00,Acu-Link.com,2013-03-11 14:57:00,
2013-03-11 11:13:00,47.5,34.7,29.97,SSW,202,4.7,-999.0,61,-99.99,,,0.00,Acu-Link.com,2013-03-11 15:13:00,
2013-03-11 11:28:00,48.7,36.7,29.96,SW,225,8.3,-999.0,63,-99.99,,,0.00,Acu-Link.com,2013-03-11 15:28:00,
2013-03-11 11:43:00,49.8,38.9,29.94,WSW,247,5.3,-999.0,66,-99.99,,,0.00,Acu-Link.com,2013-03-11 15:43:00,
2013-03-11 11:58:00,49.8,36.5,29.95,SSW,202,4.2,-999.0,60,-99.99,,,0.00,Acu-Link.com,2013-03-11 15:58:00,
2013-03-11 12:14:00,51.4,41.2,29.94,SW,225,6.8,-999.0,68,-99.99,,,0.00,Acu-Link.com,2013-03-11 16:14:00,
2013-03-11 12:29:00,48.2,34.1,29.95,SW,225,5.3,-999.0,58,-99.99,,,0.00,Acu-Link.com,2013-03-11 16:29:00,
2013-03-11 12:44:00,46.2,32.2,29.95,SW,225,4.7,-999.0,58,-99.99,,,0.00,Acu-Link.com,2013-03-11 16:44:00,
2013-03-11 12:59:00,46.6,33.9,29.93,SSW,202,6.8,-999.0,61,-99.99,,,0.00,Acu-Link.com,2013-03-11 16:59:00,
2013-03-11 13:14:00,46.6,33.5,29.93,SW,225,4.7,-999.0,60,-99.99,,,0.00,Acu-Link.com,2013-03-11 17:14:00,
2013-03-11 13:29:00,46.4,34.1,29.92,South,180,6.3,-999.0,62,-99.99,,,0.00,Acu-Link.com,2013-03-11 17:29:00,
2013-03-11 13:44:00,47.3,36.1,29.92,SW,225,4.7,-999.0,65,-99.99,,,0.00,Acu-Link.com,2013-03-11 17:44:00,
2013-03-11 13:59:00,46.6,35.9,29.91,SW,225,4.7,-999.0,66,-99.99,,,0.00,Acu-Link.com,2013-03-11 17:59:00,
2013-03-11 14:14:00,46.2,36.6,29.92,SW,225,4.7,-999.0,69,-99.99,,,0.00,Acu-Link.com,2013-03-11 18:14:00,
2013-03-11 14:29:00,46.4,37.5,29.91,West,270,3.2,-999.0,71,-99.99,,,0.00,Acu-Link.com,2013-03-11 18:29:00,
2013-03-11 14:44:00,48.4,40.8,29.91,SSW,202,4.7,-999.0,75,-99.99,,,0.00,Acu-Link.com,2013-03-11 18:44:00,
2013-03-11 15:00:00,48.0,40.5,29.89,WSW,247,4.7,-999.0,75,-99.99,,,0.00,Acu-Link.com,2013-03-11 19:00:00,
2013-03-11 15:15:00,48.2,41.7,29.89,SW,225,4.2,-999.0,78,-99.99,,,0.00,Acu-Link.com,2013-03-11 19:15:00,
2013-03-11 15:30:00,48.4,42.2,29.87,SW,225,3.7,-999.0,79,-99.99,,,0.00,Acu-Link.com,2013-03-11 19:30:00,
2013-03-11 15:46:00,48.6,42.7,29.86,South,180,3.7,-999.0,80,-99.99,,,0.00,Acu-Link.com,2013-03-11 19:46:00,
2013-03-11 16:16:00,49.1,43.5,29.86,SSW,202,5.3,-999.0,81,-99.99,,,0.00,Acu-Link.com,2013-03-11 20:16:00,
2013-03-11 16:31:00,48.7,43.5,29.86,SSW,202,2.7,-999.0,82,-99.99,,,0.00,Acu-Link.com,2013-03-11 20:31:00,
2013-03-11 17:02:00,48.7,43.8,29.84,SSW,202,3.2,-999.0,83,-99.99,,,0.00,Acu-Link.com,2013-03-11 21:02:00,
2013-03-11 17:17:00,48.6,44.3,29.84,WSW,247,2.7,-999.0,85,-99.99,,,0.00,Acu-Link.com,2013-03-11 21:17:00,
2013-03-11 17:32:00,48.4,44.4,29.82,SSE,157,5.3,-999.0,86,-99.99,,,0.00,Acu-Link.com,2013-03-11 21:32:00,
2013-03-11 17:48:00,48.4,44.7,29.83,SW,225,3.2,-999.0,87,-99.99,,,0.00,Acu-Link.com,2013-03-11 21:48:00,
2013-03-11 18:03:00,48.2,44.5,29.83,SSW,202,2.7,-999.0,87,-99.99,,,0.00,Acu-Link.com,2013-03-11 22:03:00,
2013-03-11 18:18:00,48.6,45.2,29.82,WSW,247,2.7,-999.0,88,-99.99,,,0.00,Acu-Link.com,2013-03-11 22:18:00,
2013-03-11 18:34:00,48.7,45.3,29.82,SSW,202,3.2,-999.0,88,-99.99,,,0.00,Acu-Link.com,2013-03-11 22:34:00,
2013-03-11 18:49:00,48.7,45.3,29.81,ESE,112,3.2,-999.0,88,-99.99,,,0.00,Acu-Link.com,2013-03-11 22:49:00,
2013-03-11 19:20:00,48.6,45.2,29.82,SSW,202,1.7,-999.0,88,-99.99,,,0.00,Acu-Link.com,2013-03-11 23:20:00,
2013-03-11 19:35:00,50.2,46.5,29.82,SSW,202,4.2,-999.0,87,-99.99,,,0.00,Acu-Link.com,2013-03-11 23:35:00,
2013-03-11 19:50:00,50.0,46.3,29.82,South,180,3.2,-999.0,87,-99.99,,,0.00,Acu-Link.com,2013-03-11 23:50:00,
2013-03-11 20:05:00,50.0,46.3,29.81,SE,135,8.9,-999.0,87,-99.99,,,0.00,Acu-Link.com,2013-03-12 00:05:00,
2013-03-11 20:20:00,50.7,47.0,29.80,South,180,4.2,-999.0,87,-99.99,,,0.00,Acu-Link.com,2013-03-12 00:20:00,
2013-03-11 20:36:00,50.2,46.5,29.80,SSW,202,4.2,-999.0,87,-99.99,,,0.00,Acu-Link.com,2013-03-12 00:36:00,
2013-03-11 21:06:00,50.2,47.1,29.79,WNW,292,3.7,-999.0,89,-99.99,,,0.00,Acu-Link.com,2013-03-12 01:06:00,
2013-03-11 21:21:00,49.6,47.1,29.78,South,180,4.2,-999.0,91,-99.99,,,0.00,Acu-Link.com,2013-03-12 01:21:00,
2013-03-11 21:37:00,49.8,47.6,29.78,SW,225,4.7,-999.0,92,-99.99,,,0.00,Acu-Link.com,2013-03-12 01:37:00,
2013-03-11 21:52:00,50.5,47.7,29.78,SSW,202,4.7,-999.0,90,-99.99,,,0.00,Acu-Link.com,2013-03-12 01:52:00,
2013-03-11 22:07:00,50.4,48.2,29.77,South,180,3.7,-999.0,92,-99.99,,,0.00,Acu-Link.com,2013-03-12 02:07:00,
2013-03-11 22:22:00,50.2,48.0,29.77,SW,225,6.3,-999.0,92,-99.99,,,0.00,Acu-Link.com,2013-03-12 02:22:00,
2013-03-11 22:37:00,50.7,48.5,29.77,SW,225,5.3,-999.0,92,-99.99,,,0.00,Acu-Link.com,2013-03-12 02:37:00,
2013-03-11 22:53:00,50.9,48.7,29.77,SW,225,5.3,-999.0,92,-99.99,,,0.00,Acu-Link.com,2013-03-12 02:53:00,
2013-03-11 23:08:00,51.1,48.6,29.77,SW,225,6.8,-999.0,91,-99.99,,,0.00,Acu-Link.com,2013-03-12 03:08:00,
2013-03-11 23:23:00,50.9,48.7,29.76,SSW,202,9.9,-999.0,92,-99.99,,,0.00,Acu-Link.com,2013-03-12 03:23:00,
2013-03-11 23:38:00,50.4,49.0,29.77,SSW,202,7.8,-999.0,95,-99.99,,,0.01,Acu-Link.com,2013-03-12 03:38:00,
2013-03-11 23:53:00,50.0,49.2,29.76,SSW,202,5.8,-999.0,97,-99.99,,,0.03,Acu-Link.com,2013-03-12 03:53:00,